Location: Greenwich
(51.4790°N, 0.0090°E)
Time: 02:47:31
(UTC+01:00)

Transit 4A - Pass Details

Date: 25 April 2024
Orbit: 871 x 971 km, 66.8° (Epoch: 20 May)

Event Time Altitude Azimuth Distance (km) Brightness Sun altitude
Rises 22:15:28 0° 315° (NW) 3,470 12.8 -16.0°
Reaches altitude 10° 22:18:21 10° 303° (WNW) 2,530 11.4 -16.3°
Maximum altitude 22:22:58 25° 250° (WSW) 1,702 9.5 -16.8°
Drops below altitude 10° 22:27:37 10° 198° (SSW) 2,541 9.9 -17.2°
Enters shadow 22:27:54 - 196° (SSW) 2,628 9.9 -17.3°
